Location: La Chapelle-Erbr�e
(48.1333°N, 1.1000°W)
Time: 09:58:47
(UTC+00:00)

Daily predictions for brighter satellites

Satellite Brightness Start Highest point End
(mag) Time Altitude Azimuth Time Altitude Azimuth Time Altitude Azimuth
SL-08 R/B 3.3 16:40:50 10° NNE 16:45:34 67° ESE 16:50:11 10° S
deb Kosmos-1763 4.2 16:45:06 10° SSW 16:48:29 70° WNW 16:51:55 10° NNE
Cosmos 1766 Rocket 4.4 16:44:57 10° NNW 16:49:13 55° W 16:53:29 10° S
Cosmos 2084 3.5 16:45:32 10° NW 16:49:47 64° NE 16:54:12 10° SE
Cosmos 1656 3.7 16:45:00 10° NNW 16:50:34 84° ENE 16:56:11 10° SSE
NOSS 2-1 (E) 4.2 16:51:01 10° WSW 16:53:59 32° NW 16:57:10 10° NNE
FengYun 1-2 T 4.3 16:49:08 10° SSE 16:54:37 62° ENE 17:00:06 10° N
H-2A R/B 2.8 16:51:22 10° ESE 16:55:43 28° ENE 17:00:00 10° N
Cosmos 2034 Rocket 4.1 16:49:57 10° S 16:55:57 59° E 17:02:00 10° NNE
MOS 1 Rocket 4.3 16:51:25 10° N 16:56:20 50° WNW 17:00:56 10° SW
ERBS 3.2 16:53:36 10° W 16:56:35 35° NNW 16:59:36 10° NE
Cosmos 2322 Rocket 4.0 16:55:16 10° N 16:57:26 12° NNE 16:59:35 10° NE
Cosmos 1666 4.5 16:56:25 10° NE 16:57:46 12° ENE 16:59:06 10° E
USA 306 3.6 16:55:47 10° W 16:59:50 41° N 17:03:44 11° ENE
Cosmos 1271 Rocket 4.1 16:57:22 10° SW 17:01:07 42° WNW 17:04:57 10° N
Meteor 2-19 Rocket 4.5 16:55:09 10° N 17:01:16 86° E 17:07:24 10° S
Cosmos 1697 Rocket 2.8 16:56:20 10° NNW 17:01:52 56° ENE 17:07:23 10° SE
Cosmos 2369 4.1 16:59:40 10° NNW 17:05:08 42° NE 17:10:33 10° SE
USA 267 3.3 16:58:35 10° NE 17:05:10 80° SE 17:11:43 10° SW
Cosmos 1980 Rocket 2.8 17:00:22 10° NNW 17:05:34 35° NE 17:10:42 10° ESE
Cosmos 1763 Rocket 3.6 17:02:36 10° S 17:07:31 53° ESE 17:12:30 10° NNE
COSMO-SKYMED 1 4.2 17:05:08 10° NE 17:07:47 16° E 17:10:28 10° SE
Cosmos 1939 Rocket 2.9 17:05:09 10° SSE 17:09:14 66° ENE 17:13:18 10° N
SL-24 R/B - RUBIN 2 4.2 17:06:01 10° NNW 17:10:20 37° NE 17:14:24 10° ESE
Meteor 1-25 Rocket 4.2 17:05:34 10° N 17:11:06 60° ENE 17:16:37 10° SSE
Cosmos 841 Rocket 4.4 17:08:50 10° SSE 17:13:10 28° E 17:17:15 11° NE
SL-16 R/B 3.7 17:11:22 10° N 17:15:01 17° NE 17:17:26 13° ENE
Cosmos 1937 Rocket 3.6 17:09:47 10° NNW 17:15:01 54° ENE 17:20:13 10° SE
Cosmos 1812 4.3 17:12:52 10° SE 17:15:21 17° E 17:16:31 15° ENE
Cosmos 1634 Rocket 4.4 17:11:50 10° SSE 17:17:43 42° E 17:23:37 10° NNE
Cosmos 1633 Rocket 4.3 17:14:51 10° NNE 17:18:09 21° ENE 17:21:27 10° ESE
USA 307 3.7 17:14:09 10° WNW 17:18:12 39° N 17:21:20 15° ENE
USA 229 DEB 4.0 17:12:08 10° NW 17:19:29 89° NE 17:27:18 10° SE
USA 229 4.0 17:12:14 10° NW 17:19:34 89° NE 17:27:23 10° SE
Cosmos 2082 Rocket 3.1 17:15:50 10° SSE 17:20:35 28° ESE 17:24:27 14° NE
YAOGAN 1 4.4 17:22:20 13° NE 17:22:20 13° NE 17:23:34 10° NNE
NOAA 6 4.0 17:17:26 10° SSE 17:22:35 83° ENE 17:27:44 10° NNW
Cosmos 990 Rocket 4.2 17:18:25 10° NNW 17:23:38 75° WSW 17:28:46 10° SSE
Cosmos 2026 Rocket 4.0 17:17:48 10° N 17:23:53 57° ENE 17:29:51 10° SSE
Cosmos 2195 Rocket 4.4 17:20:59 10° N 17:27:09 70° E 17:33:19 10° SSE
CZ-4B DEB 4.2 17:21:42 10° SSE 17:27:11 72° ENE 17:32:40 10° NNW
CORIOLIS 4.1 17:21:53 10° SSE 17:27:17 81° ENE 17:32:45 10° NNW
ATLAS 2AS CENTAUR R/B 4.2 17:21:17 10° WNW 17:27:38 27° NNW 17:33:27 11° NE
USA 276 3.8 17:25:34 10° W 17:28:25 33° SSW 17:31:16 10° SE
Cosmos 372 Rocket 4.2 17:24:16 10° NNW 17:29:18 46° ENE 17:34:21 10° SE
Cosmos 2278 4.2 17:24:14 10° NNW 17:29:34 38° NE 17:34:51 10° ESE
Cosmos 1602 3.6 17:25:55 10° N 17:29:45 65° E 17:33:35 10° SSE
Okean O Rocket 2.4 17:26:38 10° SE 17:30:30 30° ENE 17:34:24 10° N
Cosmos 1743 Rocket 3.7 17:27:33 10° NNW 17:31:53 76° W 17:36:12 10° S
ATLAS CENTAUR R/B 3.7 17:29:31 10° WNW 17:32:31 18° NNW 17:35:39 10° NNE
Cosmos 1782 3.0 17:32:14 10° SSE 17:36:04 46° E 17:39:44 11° NNE
Meteor 2-14 Rocket 4.4 17:30:02 10° N 17:36:08 65° ENE 17:42:08 10° SSE
Cosmos 1151 Rocket 3.9 17:32:29 10° SSE 17:36:08 27° E 17:38:08 19° NE
COSMOS 2406 3.3 17:32:24 10° S 17:38:03 62° ESE 17:43:04 13° NE
USA 234 3.6 17:32:59 10° SE 17:39:30 70° SW 17:46:03 10° WNW
COSMOS 2455 3.2 17:34:07 10° S 17:39:48 46° ESE 17:43:55 18° NE
USA 308 3.7 17:36:46 10° WNW 17:40:45 37° N 17:42:51 22° NE
NOSS 3-1 (A) 4.5 17:35:33 10° NW 17:43:00 69° SW 17:51:41 10° SSE
Cosmos 1666 Rocket 3.9 17:39:03 10° N 17:43:17 41° ENE 17:47:27 10° SE
ARGOS 3.4 17:39:04 10° SE 17:44:10 45° ENE 17:49:19 10° N
Cosmos 1833 Rocket 2.6 17:38:57 10° SSW 17:44:34 86° ESE 17:49:48 12° NNE
Cosmos 1340 Rocket 4.4 17:42:11 10° NNW 17:46:00 39° W 17:49:48 10° SSW
Cosmos 858 Rocket 4.5 17:41:37 10° NNW 17:46:57 87° ENE 17:52:14 10° SSE
ISS -3.8 17:45:25 10° WNW 17:48:50 75° NNE 17:50:10 34° E
NOSS 2-2 (D) 4.2 17:44:29 10° NW 17:49:33 76° NE 17:56:40 10° SE
NOSS 2-2 (E) 4.4 17:44:53 10° NW 17:50:07 89° NE 17:57:32 10° SE
Cosmos 1328 Rocket 4.4 17:46:41 10° SSE 17:50:28 28° E 17:50:52 28° E
CZ-2D R/B 3.2 17:47:53 10° SSE 17:51:44 89° WSW 17:55:35 10° NNW
Cosmos 1809 Rocket 4.5 17:45:38 10° N 17:51:46 85° W 17:57:50 10° S
PAYLOAD B 4.2 17:48:35 10° SSE 17:54:12 89° WSW 17:59:51 10° NNW
Lacrosse 5 rocket 2.0 17:52:13 10° NW 17:55:48 33° NNE 17:56:30 31° NE
SKYMED 2 3.8 17:53:45 22° NE 17:56:14 45° E 18:00:24 10° S
CZ-4 R/B 3.7 17:59:49 11° NNE 17:59:49 11° NNE 17:59:57 10° N
Meteor 2-21 Rocket 4.3 17:51:46 10° N 17:57:54 70° E 18:03:56 10° SSE
Cosmos 1570 Rocket 4.5 17:55:41 10° S 18:00:29 38° ESE 18:02:05 30° ENE
EP 1 4.5 17:57:13 10° SSW 18:00:30 62° SE 18:00:41 60° ESE
Landsat 5 4.0 18:00:26 35° E 18:00:33 35° E 18:04:14 10° SSE
CZ-4B R/B 3.0 17:55:42 10° SSE 18:01:06 75° ENE 18:06:28 10° NNW
ATLAS CENTAUR R/B 2.7 17:51:42 10° SW 18:01:12 87° NW 18:03:22 31° NE
SL-08 RB Rocket 4.0 17:59:33 10° SE 18:03:57 44° ENE 18:08:20 10° N
Cosmos 1500 3.2 18:00:20 10° NNW 18:04:05 78° W 18:07:47 10° S
CZ-2C R/B 2.6 17:59:23 11° NNE 18:04:15 57° E 18:09:20 10° S
Cosmos 540 Rocket 3.4 17:59:13 10° SSW 18:04:20 87° WNW 18:08:24 16° NNE
GEOS 3 Rocket 3.8 18:02:08 27° E 18:04:45 49° NE 18:09:45 10° NNW
Cosmos 1818 3.9 18:01:56 10° NNW 18:07:13 45° NE 18:09:03 33° E
Meteor 1-11 Rocket 4.3 18:02:33 10° N 18:07:34 32° ENE 18:07:50 32° ENE
USA 305 3.6 18:04:09 10° WNW 18:08:07 37° N 18:08:56 34° NNE
Cosmos 1814 Rocket 4.1 18:03:07 10° S 18:08:09 50° ESE 18:10:08 33° NE
Cosmos 44 Rocket 3.6 18:06:17 10° NNW 18:11:02 43° NE 18:11:46 40° ENE
CZ-4C R/B 2.9 18:04:14 10° NW 18:11:21 74° NE 18:19:42 10° SE
Meteor 1-26 Rocket 4.4 18:05:44 10° SSW 18:11:43 84° W 18:17:49 10° N
Sich 1 3.6 18:08:36 10° NNW 18:12:48 57° W 18:17:02 10° S
Cosmos 1933 4.4 18:08:57 10° SSW 18:12:50 44° WNW 18:16:44 10° N
Feng Yun 1-1 Rocket 4.3 18:14:10 10° SSE 18:19:58 61° ENE 18:25:45 10° N
Cosmos 2360 Rocket 3.6 18:19:05 10° N 18:22:13 21° NNE 18:22:13 21° NNE
deb Chang Zheng 4 3.9 18:23:57 10° S 18:28:14 65° WSW 18:32:32 10° NNW
Cosmos 2208 Rocket 4.1 18:27:52 10° S 18:33:08 58° ESE 18:33:46 54° ENE
Cosmos 1666 3.0 18:30:02 10° NNW 18:33:44 63° W 18:37:24 10° S
H-2A R/B 3.1 18:30:01 10° S 18:34:58 45° W 18:39:50 10° NNW
Cosmos 2150 Rocket 4.1 18:32:33 10° NNW 18:37:02 51° NE 18:37:02 51° NE
USA 306 3.8 18:36:18 10° WNW 18:39:44 38° NNW 18:39:44 38° NNW
Cosmos 2322 Rocket 2.9 18:37:43 10° NNW 18:41:55 37° NNE 18:41:55 37° NNE
COSMO-SKYMED 1 3.0 18:42:21 30° N 18:44:20 59° WNW 18:48:36 10° SSW
Cosmos 2279 Rocket 4.2 18:40:59 10° SSW 18:47:10 70° W 18:53:23 10° N
USA 267 3.7 18:45:34 35° NE 18:47:59 51° NNW 18:54:15 10° W
Cosmos 1980 Rocket 3.2 18:44:19 10° NW 18:49:42 46° WSW 18:55:02 10° S
Cosmos 2266 Rocket 3.9 18:44:19 10° N 18:50:44 79° E 18:57:09 10° SSE
Cosmos 1812 3.9 18:47:05 10° SSW 18:50:45 41° WNW 18:51:36 36° NW
Spot 2 4.4 18:51:14 26° SSE 18:54:15 87° WSW 18:59:25 10° NNW
Cosmos 841 Rocket 4.4 18:49:53 10° SW 18:54:49 45° WNW 18:57:22 26° N
Cosmos 1633 Rocket 4.1 18:52:01 10° NNW 18:56:11 44° W 19:00:21 10° SSW
YAOGAN 1 4.3 18:59:29 23° NNW 18:59:29 23° NNW 19:01:13 10° NNW
Cosmos 1125 Rocket 3.9 18:53:26 10° NNW 18:57:27 52° N 18:57:27 52° N
USA 307 4.2 18:54:37 10° WNW 18:57:22 33° NNW 18:57:22 33° NNW
SL-16 R/B 2.3 18:54:33 10° NNW 18:59:20 58° N 18:59:20 58° N
Meteor 2-15 Rocket 4.3 18:56:48 10° S 19:02:54 79° E 19:03:20 74° NE
Cosmos 2082 Rocket 2.8 18:58:50 10° SW 19:04:23 53° WNW 19:06:20 37° N
Okean O Rocket 3.3 19:02:46 10° SSW 19:06:47 33° W 19:10:51 10° NNW
Cosmos 2333 Rocket 4.1 19:04:26 10° NNW 19:06:12 17° N 19:06:12 17° N
ATLAS 2AS CENTAUR R/B 4.1 19:14:56 10° NW 19:20:53 26° N 19:20:53 26° N
Cosmos 1655 Rocket 4.5 19:15:53 10° NNW 19:22:10 61° W 19:28:24 10° S
ISS -0.5 19:22:33 10° W 19:23:11 14° W 19:23:11 14° W
COSMOS 2455 3.8 19:20:08 10° WSW 19:25:49 42° NW 19:27:05 37° NNW
Lacrosse 5 rocket 3.9 19:31:10 10° WNW 19:32:07 17° WNW 19:32:07 17° WNW
Cosmos 2219 Rocket 4.4 19:33:14 10° NNW 19:34:05 14° N 19:34:05 14° N
CZ-4C R/B 4.3 19:53:10 10° NW 19:59:45 35° WSW 20:05:33 16° S
Cosmos 2360 Rocket 4.3 20:02:32 10° NNW 20:04:00 19° NNW 20:04:00 19° NNW
Cosmos 2322 Rocket 4.4 20:21:55 10° NW 20:23:46 20° NW 20:23:46 20° NW
